EA3EH-1 Weather Reports


time (UTC)temp
C
wind
direction
speed
KPH
gust
KPH
rain 1hr
cm
rain 24hr
cm
rain mn
cm
humidity
%
barometer
mb
20260504190144 16 288 0.0 0.0 0.00 0.00 0.20 76 1007.0
20260504185644 16 288 0.0 0.0 0.00 0.00 0.20 76 1007.0
20260504185144 16 288 0.0 0.0 0.00 0.00 0.20 75 1007.0
20260504184644 16 288 0.0 0.0 0.00 0.00 0.20 75 1007.0
20260504184145 16 288 0.0 0.0 0.00 0.00 0.20 75 1007.0
20260504183644 16 288 0.0 0.0 0.00 0.00 0.20 75 1006.0
20260504183148 16 288 0.0 0.0 0.00 0.00 0.20 74 1006.0
20260504182645 16 288 0.0 0.0 0.00 0.00 0.20 73 1006.0
20260504181145 16 287 0.0 0.0 0.00 0.00 0.20 71 1006.0
20260504180745 16 288 0.0 0.0 0.00 0.00 0.20 71 1007.0
20260504175245 16 288 0.0 0.0 0.00 0.00 0.20 70 1007.0
20260504174744 16 288 0.0 0.0 0.00 0.00 0.20 69 1007.0
20260504174245 16 288 0.0 0.0 0.00 0.00 0.20 68 1007.0
20260504173744 17 288 0.0 0.0 0.00 0.00 0.20 69 1007.0
20260504173244 17 288 0.0 0.0 0.00 0.00 0.20 69 1007.0
20260504171745 17 288 0.0 0.0 0.00 0.00 0.20 69 1007.0
20260504171244 17 288 0.0 0.0 0.00 0.00 0.20 67 1007.0
20260504170744 17 288 0.0 0.0 0.00 0.00 0.20 67 1007.0
20260504150245 17 211 0.0 0.0 0.10 0.00 0.20 65 1007.0
20260504140445 17 209 4.8 0.0 0.00 0.00 0.10 54 1007.0
20260504130645 21 147 4.8 4.8 0.00 0.00 0.00 33 1007.0
20260504120147 25 44 3.2 4.8 0.00 0.00 0.00 20 1007.0
20260504110144 22 197 0.0 0.0 0.00 0.00 0.00 21 1008.0
20260504100148 21 211 0.0 0.0 0.00 0.00 0.00 22 1008.0
20260504081146 17 215 0.0 4.8 0.00 0.00 0.00 40 1008.0
20260504050148 12 220 6.4 8.0 0.00 0.00 0.00 77 1009.0
20260504045645 12 226 0.0 8.0 0.00 0.00 0.00 78 1009.0
20260504043645 12 124 0.0 0.0 0.00 0.00 0.00 77 1009.0
20260504041645 12 124 0.0 0.0 0.00 0.00 0.00 76 1009.0
20260504040148 12 124 0.0 0.0 0.00 0.00 0.00 75 1009.0
20260504035645 12 124 3.2 4.8 0.00 0.00 0.00 75 1009.0
20260504034646 12 124 0.0 0.0 0.00 0.00 0.00 75 1009.0
20260504033645 12 124 0.0 0.0 0.00 0.00 0.00 74 1009.0
20260504031145 12 124 0.0 0.0 0.00 0.00 0.00 74 1009.0
20260504030645 12 124 0.0 0.0 0.00 0.00 0.00 74 1009.0
20260504030144 12 124 0.0 0.0 0.00 0.00 0.00 74 1009.0
20260504025144 12 124 0.0 0.0 0.00 0.00 0.00 74 1009.0
20260504023645 12 124 0.0 0.0 0.00 0.00 0.00 75 1009.0
20260504023146 12 124 0.0 0.0 0.00 0.00 0.00 76 1009.0
20260504022644 13 124 0.0 0.0 0.00 0.00 0.00 77 1009.0
20260504022145 12 124 0.0 0.0 0.00 0.00 0.00 76 1009.0
20260504021644 12 124 0.0 0.0 0.00 0.00 0.00 75 1009.0
20260504015644 13 124 0.0 0.0 0.00 0.00 0.00 74 1010.0
20260504014645 13 124 0.0 0.0 0.00 0.00 0.00 75 1010.0
20260504012146 13 124 0.0 0.0 0.00 0.00 0.00 75 1010.0
20260504002645 13 124 0.0 0.0 0.00 0.00 0.00 75 1010.0
20260504001646 13 124 0.0 0.0 0.00 0.00 0.00 74 1010.0
20260504001146 13 124 3.2 4.8 0.00 0.00 0.00 73 1010.0
20260504000145 13 124 0.0 0.0 0.00 0.00 0.00 72 1010.0
20260503235644 14 124 0.0 0.0 0.00 0.00 0.00 73 1010.0
20260503235145 13 124 0.0 0.0 0.00 0.00 0.00 73 1010.0
20260503234647 13 124 0.0 0.0 0.00 0.00 0.00 73 1010.0
20260503234145 13 124 0.0 0.0 0.00 0.00 0.00 71 1010.0
20260503233145 14 124 0.0 0.0 0.00 0.00 0.00 70 1011.0
20260503231645 14 124 0.0 0.0 0.00 0.00 0.00 69 1011.0
20260503231145 14 124 0.0 0.0 0.00 0.00 0.00 68 1011.0
20260503225644 14 124 0.0 0.0 0.00 0.00 0.00 68 1011.0
20260503224644 14 124 0.0 0.0 0.00 0.00 0.00 69 1011.0
20260503224144 14 124 0.0 0.0 0.00 0.00 0.00 68 1011.0
20260503223644 14 124 0.0 0.0 0.00 0.00 0.00 69 1011.0
20260503221144 14 124 0.0 0.0 0.00 0.00 0.00 71 1011.0
20260503220645 15 124 0.0 0.0 0.00 0.00 0.00 71 1012.0
20260503215644 15 124 0.0 0.0 0.00 0.00 0.00 70 1012.0
20260503215145 15 124 0.0 0.0 0.00 0.00 0.00 69 1011.0
20260503214144 15 124 0.0 0.0 0.00 0.00 0.00 69 1011.0
20260503213645 15 124 0.0 0.0 0.00 0.00 0.00 69 1011.0
20260503212645 15 124 0.0 0.0 0.00 0.00 0.00 68 1011.0
20260503211144 15 124 0.0 0.0 0.00 0.00 0.00 68 1012.0
20260503205645 15 124 0.0 0.0 0.00 0.00 0.00 68 1012.0
20260503205144 15 124 0.0 0.0 0.00 0.00 0.00 68 1012.0
20260503204644 15 124 0.0 0.0 0.00 0.00 0.00 68 1012.0
20260503201645 15 124 0.0 0.0 0.00 0.00 0.00 71 1011.0
20260503200646 15 124 0.0 0.0 0.00 0.00 0.00 70 1011.0
20260503200144 15 124 0.0 0.0 0.00 0.00 0.00 70 1011.0
20260503195646 15 124 0.0 0.0 0.00 0.00 0.00 69 1011.0
20260503194644 15 124 0.0 0.0 0.00 0.00 0.00 68 1011.0
20260503192144 15 124 0.0 0.0 0.00 0.00 0.00 67 1011.0
20260503191146 15 124 0.0 0.0 0.00 0.00 0.00 68 1011.0
20260503190644 15 124 0.0 0.0 0.00 0.00 0.00 67 1011.0